Regional Weather Roundup
Issued by NWS

Home | Current Version | Previous Version | Text Only | Print | Product List | Glossary Off
Versions: 1 2 3 4 5 6 7 8 9 10 11 12 13 14 15 16 17 18 19 20 21 22 23 24 25 26 27 28 29 30 31 32 33 34 35 36 37 38 39 40 41 42 43 44 45 46 47 48 49 50

897
ASUS43 KFSD 091810
RWRSD

WEATHER ROUNDUP FOR SOUTH DAKOTA
NATIONAL WEATHER SERVICE SIOUX FALLS SD
1200 PM CST FRI DEC 09 2016

NOTE: "FAIR" INDICATES FEW OR NO CLOUDS BELOW 12,000 FEET WITH NO
SIGNIFICANT WEATHER AND/OR OBSTRUCTIONS TO VISIBILITY.


SDZ001>005-009-010-012>017-091900-
NORTHWEST AND NORTH CENTRAL SOUTH DAKOTA

CITY           SKY/WX    TMP DP  RH WIND       PRES   REMARKS
BUFFALO          N/A      2  -4  76 E3        30.31F
FAITH            N/A      2  -4  76 NE8       30.44F WCI -12
MOBRIDGE       CLOUDY     3  -4  72 NW8       30.52S HAZE    WCI -10
$$

SDZ012>016-024>037-041>051-057-063-072>074-091900-
SOUTHWEST AND SOUTH CENTRAL SOUTH DAKOTA

CITY           SKY/WX    TMP DP  RH WIND       PRES   REMARKS
RAPID CTY ARPT FLURRIES   1  -4  79 N10       30.35S WCI -15
PIERRE         FLURRIES   5  -1  76 E8        30.51R WCI  -8
CUSTER         CLOUDY    10   4  76 SW6       30.07S WCI   0
ELLSWORTH AFB  FLURRIES   1  -4  82 N9        30.34  WCI -15
PHILIP         LGT SNOW   5   0  79 E12       30.45S WCI -11
PINE RIDGE     CLOUDY     5   1  83 NW7       30.30S WCI  -7
SPEARFISH      FAIR      -2  -8  78 CALM      30.27F
WINNER         LGT SNOW  11   6  81 E13       30.43F WCI  -4
$$

SDZ004>011-016>023-039-040-091900-
NORTHEAST SOUTH DAKOTA

CITY           SKY/WX    TMP DP  RH WIND       PRES   REMARKS
ABERDEEN       PTSUNNY    6  -5  60 NW7       30.58F WCI  -6
WATERTOWN      MOSUNNY    3  -2  79 NW9       30.50F WCI -12
BROOKINGS      CLOUDY     5   0  79 VRB5      30.51F WCI  -4
SISSETON         N/A      6  -1  73 NW10      30.56F WCI  -9
$$

SDZ017-020-022-023-036>040-048>070-091900-
SOUTHEAST SOUTH DAKOTA

CITY           SKY/WX    TMP DP  RH WIND       PRES   REMARKS
SIOUX FALLS    CLOUDY    11   4  73 VRB3      30.53F
HURON          CLOUDY     6  -1  73 VRB3      30.57F
CHAMBERLAIN    CLOUDY    11   5  76 E7        30.49F WCI   0
MITCHELL       LGT SNOW   8   2  76 NE3       30.57F
YANKTON        CLOUDY     9   1  72 CALM      30.56F
$$

ABBREVIATIONS USED IN REMARKS
   TC - TEMPERATURE IN CELSIUS
  WCI - WIND CHILL INDEX
   HX - HEAT INDEX
  VSB - VISIBILITY





USA.gov is the U.S. government's official web portal to all federal, state and local government web resources and services.